| time (UTC) | temp C | wind direction | speed KPH | gust KPH | rain 1hr cm | rain 24hr cm | rain mn cm | humidity % | barometer mb |
| 20260506050106 | 11 | 162 | 3.2 | 11.3 | 0.00 | 0.03 | 0.03 | 91 | 1016.1 |
| 20260506044555 | 11 | 120 | 0.0 | 4.8 | 0.00 | 0.03 | 0.03 | 91 | 1016.0 |
| 20260506043100 | 11 | 120 | 1.6 | 6.4 | 0.00 | 0.03 | 0.03 | 90 | 1015.9 |
| 20260506041602 | 11 | 120 | 1.6 | 6.4 | 0.00 | 0.03 | 0.03 | 89 | 1015.7 |
| 20260506034616 | 12 | 0 | 0.0 | 4.8 | 0.00 | 0.03 | 0.03 | 87 | 1015.4 |
| 20260506033058 | 13 | 0 | 0.0 | 0.0 | 0.00 | 0.03 | 0.03 | 87 | 1015.1 |
| 20260506031608 | 13 | 0 | 0.0 | 0.0 | 0.00 | 0.03 | 0.03 | 85 | 1014.9 |
| 20260506030103 | 14 | 0 | 0.0 | 0.0 | 0.00 | 0.03 | 0.03 | 82 | 1014.9 |
| 20260506024619 | 15 | 0 | 0.0 | 0.0 | 0.00 | 0.03 | 0.03 | 81 | 1014.6 |
| 20260506023106 | 15 | 0 | 0.0 | 0.0 | 0.00 | 0.03 | 0.03 | 77 | 1014.8 |
| 20260506021559 | 16 | 0 | 0.0 | 0.0 | 0.00 | 0.03 | 0.03 | 75 | 1014.8 |
| 20260506020100 | 16 | 0 | 0.0 | 0.0 | 0.00 | 0.03 | 0.03 | 76 | 1014.7 |
| 20260506014559 | 16 | 0 | 0.0 | 0.0 | 0.00 | 0.03 | 0.03 | 73 | 1014.6 |
| 20260506013110 | 16 | 0 | 0.0 | 0.0 | 0.00 | 0.03 | 0.03 | 72 | 1014.7 |
| 20260506011608 | 16 | 0 | 0.0 | 1.6 | 0.00 | 0.03 | 0.03 | 74 | 1014.6 |
| 20260506010058 | 16 | 0 | 0.0 | 1.6 | 0.00 | 0.03 | 0.03 | 73 | 1014.7 |
| 20260506004557 | 16 | 0 | 0.0 | 4.8 | 0.00 | 0.03 | 0.03 | 76 | 1014.6 |
| 20260506003058 | 16 | 352 | 1.6 | 6.4 | 0.00 | 0.03 | 0.03 | 75 | 1014.7 |
| 20260506001558 | 16 | 0 | 0.0 | 6.4 | 0.00 | 0.03 | 0.03 | 77 | 1014.8 |
| 20260505234600 | 15 | 352 | 3.2 | 8.0 | 0.00 | 0.03 | 0.03 | 77 | 1015.1 |
| 20260505233102 | 16 | 0 | 1.6 | 8.0 | 0.00 | 0.03 | 0.03 | 77 | 1015.2 |
| 20260505231559 | 16 | 0 | 0.0 | 6.4 | 0.00 | 0.03 | 0.03 | 75 | 1015.2 |
| 20260505230108 | 16 | 352 | 1.6 | 9.7 | 0.00 | 0.03 | 0.03 | 76 | 1015.3 |
| 20260505224600 | 15 | 0 | 0.0 | 8.0 | 0.00 | 0.03 | 0.03 | 77 | 1015.4 |
| 20260505223111 | 15 | 0 | 3.2 | 9.7 | 0.00 | 0.03 | 0.03 | 77 | 1015.5 |
| 20260505221559 | 15 | 0 | 0.0 | 1.6 | 0.00 | 0.03 | 0.03 | 77 | 1015.6 |
| 20260505220108 | 15 | 0 | 0.0 | 4.8 | 0.00 | 0.03 | 0.03 | 76 | 1015.6 |
| 20260505214559 | 15 | 0 | 0.0 | 4.8 | 0.00 | 0.03 | 0.03 | 78 | 1015.7 |
| 20260505213101 | 15 | 0 | 1.6 | 4.8 | 0.00 | 0.03 | 0.03 | 77 | 1015.7 |
| 20260505211559 | 15 | 352 | 0.0 | 6.4 | 0.00 | 0.03 | 0.03 | 77 | 1015.7 |
| 20260505210058 | 15 | 352 | 4.8 | 12.9 | 0.00 | 0.03 | 0.03 | 77 | 1015.7 |
| 20260505204608 | 15 | 352 | 0.0 | 12.9 | 0.00 | 0.03 | 0.03 | 80 | 1015.8 |
| 20260505203108 | 15 | 352 | 3.2 | 14.5 | 0.00 | 0.03 | 0.03 | 79 | 1015.9 |
| 20260505201608 | 15 | 0 | 0.0 | 4.8 | 0.00 | 0.03 | 0.03 | 78 | 1016.0 |
| 20260505200101 | 14 | 0 | 0.0 | 0.0 | 0.00 | 0.03 | 0.03 | 79 | 1016.0 |
| 20260505194612 | 14 | 0 | 0.0 | 4.8 | 0.00 | 0.03 | 0.03 | 81 | 1016.0 |
| 20260505193056 | 14 | 346 | 1.6 | 6.4 | 0.00 | 0.03 | 0.03 | 83 | 1016.0 |
| 20260505191601 | 13 | 0 | 0.0 | 3.2 | 0.00 | 0.03 | 0.03 | 82 | 1016.0 |
| 20260505190056 | 13 | 0 | 3.2 | 8.0 | 0.00 | 0.03 | 0.03 | 83 | 1016.1 |
| 20260505184555 | 13 | 0 | 0.0 | 9.7 | 0.00 | 0.03 | 0.03 | 83 | 1016.0 |
| 20260505183107 | 13 | 0 | 0.0 | 6.4 | 0.00 | 0.03 | 0.03 | 82 | 1016.0 |
| 20260505181558 | 13 | 0 | 0.0 | 1.6 | 0.00 | 0.03 | 0.03 | 86 | 1016.1 |
| 20260505180104 | 12 | 244 | 0.0 | 0.0 | 0.00 | 0.03 | 0.03 | 86 | 1016.0 |
| 20260505174600 | 12 | 0 | 0.0 | 4.8 | 0.00 | 0.03 | 0.03 | 88 | 1015.9 |
| 20260505173056 | 12 | 0 | 0.0 | 6.4 | 0.00 | 0.03 | 0.03 | 90 | 1015.8 |
| 20260505171558 | 11 | 0 | 0.0 | 0.0 | 0.00 | 0.03 | 0.03 | 91 | 1015.9 |
| 20260505170100 | 11 | 0 | 0.0 | 6.4 | 0.00 | 0.03 | 0.03 | 92 | 1015.7 |
| 20260505164606 | 11 | 0 | 0.0 | 0.0 | 0.03 | 0.03 | 0.03 | 92 | 1015.7 |
| 20260505163108 | 11 | 0 | 0.0 | 0.0 | 0.03 | 0.03 | 0.03 | 93 | 1015.7 |
| 20260505161610 | 11 | 0 | 0.0 | 4.8 | 0.03 | 0.03 | 0.03 | 93 | 1015.6 |
| 20260505160110 | 11 | 0 | 0.0 | 6.4 | 0.03 | 0.03 | 0.03 | 93 | 1015.7 |
| 20260505153117 | 11 | 0 | 0.0 | 0.0 | 0.00 | 0.00 | 0.00 | 93 | 1015.6 |
| 20260505151604 | 11 | 0 | 0.0 | 0.0 | 0.00 | 0.00 | 0.00 | 93 | 1015.6 |
| 20260505140109 | 11 | 0 | 0.0 | 0.0 | 0.00 | 0.00 | 0.00 | 91 | 1014.8 |
| 20260505130104 | 11 | 0 | 0.0 | 0.0 | 0.00 | 0.00 | 0.00 | 89 | 1014.5 |
| 20260505124604 | 11 | 0 | 0.0 | 8.0 | 0.00 | 0.00 | 0.00 | 88 | 1014.4 |
| 20260505123106 | 11 | 232 | 1.6 | 9.7 | 0.00 | 0.00 | 0.00 | 87 | 1014.5 |
| 20260505121600 | 11 | 0 | 0.0 | 8.0 | 0.00 | 0.00 | 0.00 | 87 | 1014.3 |
| 20260505120059 | 11 | 196 | 0.0 | 9.7 | 0.00 | 0.00 | 0.00 | 86 | 1014.2 |
| 20260505114558 | 11 | 0 | 0.0 | 11.3 | 0.00 | 0.00 | 0.00 | 86 | 1014.1 |
| 20260505113100 | 11 | 180 | 4.8 | 14.5 | 0.00 | 0.00 | 0.00 | 85 | 1014.0 |
| 20260505111559 | 11 | 194 | 3.2 | 8.0 | 0.00 | 0.00 | 0.00 | 85 | 1014.1 |
| 20260505110105 | 11 | 0 | 6.4 | 16.1 | 0.00 | 0.00 | 0.00 | 85 | 1014.0 |
| 20260505101602 | 12 | 179 | 4.8 | 16.1 | 0.00 | 0.00 | 0.00 | 84 | 1013.8 |
| 20260505100057 | 12 | 167 | 3.2 | 12.9 | 0.00 | 0.00 | 0.00 | 84 | 1013.8 |
| 20260505094603 | 12 | 182 | 6.4 | 14.5 | 0.00 | 0.00 | 0.00 | 83 | 1013.8 |
| 20260505093055 | 12 | 0 | 3.2 | 17.7 | 0.00 | 0.00 | 0.00 | 83 | 1013.7 |
| 20260505091559 | 12 | 163 | 3.2 | 14.5 | 0.00 | 0.00 | 0.00 | 83 | 1013.5 |
| 20260505090101 | 12 | 167 | 6.4 | 17.7 | 0.00 | 0.00 | 0.00 | 83 | 1013.5 |
| 20260505084628 | 12 | 167 | 4.8 | 19.3 | 0.00 | 0.00 | 0.00 | 83 | 1013.6 |
| 20260505083057 | 12 | 198 | 3.2 | 14.5 | 0.00 | 0.00 | 0.00 | 83 | 1013.5 |
| 20260505081602 | 12 | 178 | 6.4 | 14.5 | 0.00 | 0.00 | 0.00 | 83 | 1013.4 |
| 20260505080055 | 12 | 0 | 3.2 | 22.5 | 0.00 | 0.00 | 0.00 | 83 | 1013.3 |
| 20260505074613 | 12 | 0 | 4.8 | 17.7 | 0.00 | 0.00 | 0.00 | 82 | 1013.2 |
| 20260505073202 | 12 | 0 | 8.0 | 17.7 | 0.00 | 0.00 | 0.00 | 82 | 1013.1 |
| 20260505071557 | 13 | 147 | 8.0 | 22.5 | 0.00 | 0.00 | 0.00 | 81 | 1012.9 |
| 20260505070055 | 12 | 0 | 4.8 | 12.9 | 0.00 | 0.00 | 0.00 | 83 | 1012.8 |
| 20260505064559 | 12 | 0 | 0.0 | 0.0 | 0.00 | 0.00 | 0.00 | 84 | 1012.6 |
| 20260505063058 | 13 | 0 | 0.0 | 0.0 | 0.00 | 0.00 | 0.00 | 83 | 1012.6 |
| 20260505061624 | 13 | 0 | 0.0 | 12.9 | 0.00 | 0.00 | 0.00 | 83 | 1012.6 |